Location: Navalmoral
(40.4603°N, 4.7686°W)
Time: 09:24:51
(UTC+00:00)

ADEOS - Pass Details

Date: 05 August 2024
Orbit: 790 x 793 km, 98.9° (Epoch: 15 September)

Event Time Altitude Azimuth Distance (km) Brightness Sun altitude
Rises 19:46:49 0° 176° (S) 3,275 6.5 -3.9°
Reaches altitude 10° 19:49:10 10° 180° (S) 2,351 5.8 -4.3°
Maximum altitude 19:54:16 57° 259° (W) 934 4.3 -5.2°
Drops below altitude 10° 19:59:24 10° 338° (NNW) 2,368 6.9 -6.1°
Sets 20:01:47 0° 342° (NNW) 3,302 7.6 -6.5°
